Location: Unspecified
(52.4292°N, 19.3359°E)
Time: 00:46:48
(UTC+02:00)

SR - Pass Details

Date: 31 May 2024
Orbit: 580 x 858 km, 66.7° (Epoch: 12 June)

Event Time Altitude Azimuth Distance (km) Brightness Sun altitude
Rises 00:09:49 0° 321° (NW) 2,895 ? -15.3°
Reaches altitude 10° 00:12:09 10° 325° (NW) 1,957 ? -15.4°
Maximum altitude 00:16:28 63° 46° (NE) 661 ? -15.4°
Enters shadow 00:19:45 16° 126° (SE) 1,541 ? -15.5°
Drops below altitude 10° 00:20:40 10° 129° (SE) 1,895 - -15.5°
Sets 00:22:53 0° 133° (SE) 2,793 - -15.5°
